Time,TemperatureF,DewpointF,PressureIn,WindDirection,WindDirectionDegrees,WindSpeedMPH,WindSpeedGustMPH,Humidity,HourlyPrecipIn,Conditions,Clouds,dailyrainin,SoftwareType,DateUTC
2013-08-22 00:13:00,75.0,71.0,30.03,ESE,120,1.0,3.0,86,0.00,,,0.00,,2013-08-22 05:13:00,
2013-08-22 00:22:00,75.0,71.0,30.03,ESE,119,1.0,5.0,86,0.00,,,0.00,,2013-08-22 05:22:00,
2013-08-22 00:43:00,74.0,70.0,30.03,SE,125,2.0,5.0,87,0.00,,,0.00,,2013-08-22 05:43:00,
2013-08-22 00:53:00,74.0,70.0,30.03,SE,134,1.0,5.0,87,0.00,,,0.00,,2013-08-22 05:53:00,
2013-08-22 01:12:00,74.0,70.0,30.04,ESE,109,0.0,3.0,88,0.00,,,0.00,,2013-08-22 06:12:00,
2013-08-22 01:22:00,73.0,69.0,30.04,SE,143,0.0,1.0,88,0.00,,,0.00,,2013-08-22 06:22:00,
2013-08-22 01:42:00,73.0,70.0,30.04,SE,132,0.0,1.0,89,0.00,,,0.00,,2013-08-22 06:42:00,
2013-08-22 01:52:00,73.0,70.0,30.04,SE,132,1.0,3.0,89,0.00,,,0.00,,2013-08-22 06:52:00,
2013-08-22 02:11:00,74.0,70.0,30.05,ESE,117,1.0,4.0,87,0.00,,,0.00,,2013-08-22 07:11:00,
2013-08-22 02:22:00,74.0,70.0,30.04,SSE,165,2.0,8.0,86,0.00,,,0.00,,2013-08-22 07:22:00,
2013-08-22 02:42:00,74.0,69.0,30.04,South,172,2.0,6.0,85,0.00,,,0.00,,2013-08-22 07:42:00,
2013-08-22 02:53:00,74.0,69.0,30.04,South,177,2.0,6.0,85,0.00,,,0.00,,2013-08-22 07:53:00,
2013-08-22 03:12:00,74.0,69.0,30.04,SE,126,1.0,4.0,85,0.00,,,0.00,,2013-08-22 08:12:00,
2013-08-22 03:22:00,74.0,70.0,30.04,SSE,158,2.0,4.0,86,0.00,,,0.00,,2013-08-22 08:22:00,
2013-08-22 03:43:00,73.0,69.0,30.04,ESE,116,1.0,3.0,86,0.00,,,0.00,,2013-08-22 08:43:00,
2013-08-22 03:53:00,73.0,69.0,30.04,ESE,123,0.0,3.0,86,0.00,,,0.00,,2013-08-22 08:53:00,
2013-08-22 04:11:00,73.0,69.0,30.04,SE,146,0.0,3.0,86,0.00,,,0.00,,2013-08-22 09:11:00,
2013-08-22 04:22:00,73.0,68.0,30.04,SE,143,0.0,2.0,85,0.00,,,0.00,,2013-08-22 09:22:00,
2013-08-22 04:43:00,73.0,69.0,30.04,SSE,151,0.0,4.0,86,0.00,,,0.00,,2013-08-22 09:43:00,
2013-08-22 04:54:00,73.0,69.0,30.04,SE,139,0.0,3.0,86,0.00,,,0.00,,2013-08-22 09:54:00,
2013-08-22 05:12:00,72.0,68.0,30.05,South,186,0.0,1.0,87,0.00,,,0.00,,2013-08-22 10:12:00,
2013-08-22 05:23:00,72.0,69.0,30.05,South,191,0.0,0.0,89,0.00,,,0.00,,2013-08-22 10:23:00,
2013-08-22 05:32:00,71.0,68.0,30.05,SE,143,0.0,1.0,90,0.00,,,0.00,,2013-08-22 10:32:00,
2013-08-22 05:42:00,71.0,68.0,30.05,South,191,0.0,1.0,90,0.00,,,0.00,,2013-08-22 10:42:00,
2013-08-22 07:42:00,69.0,67.0,30.09,SE,143,0.0,0.0,92,0.00,,,0.00,,2013-08-22 12:42:00,
2013-08-22 07:52:00,69.0,67.0,30.10,SE,143,0.0,0.0,93,0.00,,,0.00,,2013-08-22 12:52:00,
2013-08-22 08:12:00,70.0,68.0,30.10,SE,143,0.0,1.0,92,0.00,,,0.00,,2013-08-22 13:12:00,
2013-08-22 08:22:00,71.0,68.0,30.09,ESE,116,0.0,2.0,89,0.00,,,0.00,,2013-08-22 13:22:00,
2013-08-22 08:42:00,72.0,68.0,30.09,SSE,152,0.0,3.0,87,0.00,,,0.00,,2013-08-22 13:42:00,
2013-08-22 08:52:00,75.0,69.0,30.09,SE,128,0.0,3.0,83,0.00,,,0.00,,2013-08-22 13:52:00,
2013-08-22 09:11:00,77.0,70.0,30.09,ESE,117,0.0,3.0,79,0.00,,,0.00,,2013-08-22 14:11:00,
2013-08-22 10:22:00,83.0,71.0,30.07,SW,227,0.0,6.0,68,0.00,,,0.00,,2013-08-22 15:22:00,
2013-08-22 10:43:00,84.0,70.0,30.07,SSE,153,1.0,5.0,64,0.00,,,0.00,,2013-08-22 15:43:00,
2013-08-22 10:55:00,84.0,70.0,30.07,West,276,0.0,3.0,64,0.00,,,0.00,,2013-08-22 15:55:00,
2013-08-22 11:14:00,84.0,70.0,30.08,ESE,112,0.0,5.0,64,0.00,,,0.00,,2013-08-22 16:14:00,
2013-08-22 11:24:00,84.0,71.0,30.08,ESE,103,0.0,2.0,65,0.00,,,0.00,,2013-08-22 16:24:00,
2013-08-22 11:43:00,84.0,70.0,30.08,ESE,119,0.0,5.0,63,0.00,,,0.00,,2013-08-22 16:43:00,
2013-08-22 11:54:00,84.0,70.0,30.07,West,280,1.0,4.0,63,0.00,,,0.00,,2013-08-22 16:54:00,
2013-08-22 12:12:00,85.0,71.0,30.07,East,101,1.0,7.0,63,0.00,,,0.00,,2013-08-22 17:12:00,
2013-08-22 12:24:00,85.0,70.0,30.07,WSW,248,2.0,7.0,60,0.00,,,0.00,,2013-08-22 17:24:00,
2013-08-22 12:43:00,86.0,70.0,30.07,ESE,123,2.0,9.0,59,0.00,,,0.00,,2013-08-22 17:43:00,
2013-08-22 12:53:00,86.0,69.0,30.06,SE,124,3.0,7.0,57,0.00,,,0.00,,2013-08-22 17:53:00,
2013-08-22 13:12:00,87.0,70.0,30.06,ESE,122,0.0,5.0,57,0.00,,,0.00,,2013-08-22 18:12:00,
2013-08-22 13:22:00,87.0,70.0,30.06,SE,130,2.0,7.0,57,0.00,,,0.00,,2013-08-22 18:22:00,
2013-08-22 13:43:00,86.0,70.0,30.05,ESE,119,4.0,6.0,59,0.00,,,0.00,,2013-08-22 18:43:00,
2013-08-22 13:52:00,86.0,70.0,30.05,SE,146,1.0,6.0,59,0.00,,,0.00,,2013-08-22 18:52:00,
2013-08-22 14:11:00,86.0,70.0,30.05,East,96,2.0,5.0,60,0.00,,,0.00,,2013-08-22 19:11:00,
2013-08-22 14:22:00,86.0,71.0,30.05,WSW,238,0.0,5.0,61,0.00,,,0.00,,2013-08-22 19:22:00,
2013-08-22 14:42:00,86.0,71.0,30.05,ESE,106,1.0,7.0,61,0.00,,,0.00,,2013-08-22 19:42:00,
2013-08-22 14:53:00,86.0,71.0,30.05,SE,143,3.0,7.0,61,0.00,,,0.00,,2013-08-22 19:53:00,
2013-08-22 15:12:00,87.0,70.0,30.05,East,98,2.0,7.0,58,0.00,,,0.00,,2013-08-22 20:12:00,
2013-08-22 15:23:00,87.0,70.0,30.05,ESE,104,2.0,7.0,58,0.00,,,0.00,,2013-08-22 20:23:00,
2013-08-22 15:42:00,88.0,72.0,30.04,ESE,120,4.0,8.0,59,0.00,,,0.00,,2013-08-22 20:42:00,
2013-08-22 15:52:00,87.0,71.0,30.03,East,84,3.0,6.0,60,0.00,,,0.00,,2013-08-22 20:52:00,
2013-08-22 16:13:00,87.0,71.0,30.03,South,186,5.0,8.0,60,0.00,,,0.00,,2013-08-22 21:13:00,
2013-08-22 16:22:00,88.0,70.0,30.03,ESE,114,0.0,8.0,56,0.00,,,0.00,,2013-08-22 21:22:00,
2013-08-22 16:44:00,89.0,71.0,30.03,SSE,158,0.0,6.0,56,0.00,,,0.00,,2013-08-22 21:44:00,
2013-08-22 16:54:00,88.0,69.0,30.02,ESE,108,2.0,6.0,54,0.00,,,0.00,,2013-08-22 21:54:00,
2013-08-22 17:13:00,88.0,72.0,30.02,SE,130,1.0,5.0,59,0.00,,,0.00,,2013-08-22 22:13:00,
2013-08-22 17:24:00,88.0,71.0,30.02,SE,124,2.0,5.0,58,0.00,,,0.00,,2013-08-22 22:24:00,
2013-08-22 17:42:00,89.0,70.0,30.02,SSE,148,1.0,4.0,54,0.00,,,0.00,,2013-08-22 22:42:00,
2013-08-22 17:53:00,89.0,70.0,30.02,West,271,1.0,6.0,54,0.00,,,0.00,,2013-08-22 22:53:00,
2013-08-22 18:11:00,90.0,72.0,30.02,SW,225,1.0,4.0,55,0.00,,,0.00,,2013-08-22 23:11:00,
2013-08-22 18:22:00,88.0,71.0,30.01,SSE,148,3.0,6.0,57,0.00,,,0.00,,2013-08-22 23:22:00,
2013-08-22 18:42:00,87.0,71.0,30.01,ESE,105,2.0,5.0,60,0.00,,,0.00,,2013-08-22 23:42:00,
2013-08-22 18:52:00,87.0,72.0,30.01,SE,131,2.0,5.0,61,0.00,,,0.00,,2013-08-22 23:52:00,
2013-08-22 19:12:00,87.0,72.0,30.01,SE,133,2.0,5.0,62,0.00,,,0.00,,2013-08-23 00:12:00,
2013-08-22 19:23:00,86.0,72.0,30.01,ESE,120,2.0,5.0,63,0.00,,,0.00,,2013-08-23 00:23:00,
2013-08-22 19:42:00,85.0,71.0,30.01,ESE,116,2.0,5.0,64,0.00,,,0.00,,2013-08-23 00:42:00,
2013-08-22 19:52:00,85.0,72.0,30.01,ESE,120,1.0,3.0,65,0.00,,,0.00,,2013-08-23 00:52:00,
2013-08-22 20:11:00,84.0,71.0,30.01,ESE,114,0.0,2.0,66,0.00,,,0.00,,2013-08-23 01:11:00,
2013-08-22 20:21:00,84.0,72.0,30.01,ESE,102,0.0,2.0,67,0.00,,,0.00,,2013-08-23 01:21:00,
2013-08-22 20:42:00,83.0,71.0,30.01,ESE,118,0.0,1.0,68,0.00,,,0.00,,2013-08-23 01:42:00,
2013-08-22 20:52:00,82.0,71.0,30.01,ESE,118,0.0,1.0,70,0.00,,,0.00,,2013-08-23 01:52:00,
2013-08-22 21:11:00,81.0,71.0,30.01,ESE,115,0.0,1.0,71,0.00,,,0.00,,2013-08-23 02:11:00,
2013-08-22 21:23:00,81.0,72.0,30.01,SE,126,0.0,2.0,73,0.00,,,0.00,,2013-08-23 02:23:00,
2013-08-22 21:42:00,80.0,71.0,30.02,ESE,116,0.0,2.0,75,0.00,,,0.00,,2013-08-23 02:42:00,
2013-08-22 21:52:00,80.0,72.0,30.02,ESE,119,2.0,4.0,76,0.00,,,0.00,,2013-08-23 02:52:00,
2013-08-22 22:12:00,80.0,72.0,30.03,ESE,123,1.0,3.0,76,0.00,,,0.00,,2013-08-23 03:12:00,
2013-08-22 22:23:00,79.0,71.0,30.03,ESE,108,1.0,3.0,77,0.00,,,0.00,,2013-08-23 03:23:00,
2013-08-22 22:55:00,78.0,71.0,30.03,ESE,123,1.0,3.0,79,0.00,,,0.00,,2013-08-23 03:55:00,
2013-08-22 23:13:00,78.0,71.0,30.04,ESE,123,1.0,4.0,79,0.00,,,0.00,,2013-08-23 04:13:00,
2013-08-22 23:24:00,77.0,70.0,30.04,SE,126,0.0,3.0,80,0.00,,,0.00,,2013-08-23 04:24:00,
2013-08-22 23:43:00,77.0,70.0,30.04,ESE,102,2.0,3.0,80,0.00,,,0.00,,2013-08-23 04:43:00,
2013-08-22 23:54:00,77.0,71.0,30.04,SE,126,0.0,2.0,81,0.00,,,0.00,,2013-08-23 04:54:00,